Jenks, OK

6:37 PM CST on February 24, 2017 (GMT -0600)
Jones Jr.

Weather History for KRVS - June, 2014

Change the Weather History Date:

Thursday, June 26, 2014

  Actual Average (KTUL) Record (KTUL)
Temperature  
Mean Temperature 79 °F -  
Max Temperature 88 °F 89 °F 105 °F (1918)
Min Temperature 71 °F 70 °F 53 °F (1958)
Cooling Degree Days 14    
Growing Degree Days 29 (Base 50)    
Moisture  
Dew Point 70 °F    
Average Humidity 78    
Maximum Humidity 94    
Minimum Humidity 55    
Precipitation  
Precipitation 0.00 in - - ()
Sea Level Pressure  
Sea Level Pressure 29.95 in    
Wind  
Wind Speed 6 mph (South)    
Max Wind Speed 14 mph    
Max Gust Speed 18 mph    
Visibility 10 miles    
Events      
Averages and records for this station are not official NWS values.
T = Trace of Precipitation, MM = Missing Value Source: NWS Daily Summary

Daily Weather History Graph

Daily Weather History Graph

Search for Another Location

Airport or City:

Trip Planner

Search our weather history database for the weather conditions in past years. The results will help you decide how hot, cold, wet, or windy it might be!

Date:

Astronomy

Jun. 26, 2014 Rise Set
Actual Time 6:08 AM CDT 8:44 PM CDT
Civil Twilight 5:38 AM CDT 9:15 PM CDT
Nautical Twilight 5:00 AM CDT 9:52 PM CDT
Astronomical Twilight 4:19 AM CDT 10:34 PM CDT
Moon 5:46 AM CDT (6/26) 8:09 PM CDT (6/26)
Length of Visible Light 15h 36m
Length of Day
14h 35m
Waning Crescent, 0% of the Moon is Illuminated
Jun 26
Waning Crescent
Jun 27
New
Jul 5
First Quarter
Jul 12
Full
Jul 18
Last Quarter

Hourly Weather History & Observations

Time (CDT) Temp. Heat Index Dew Point Humidity Pressure Visibility Wind Dir Wind Speed Gust Speed Precip Events Conditions
12:53 AM 73.9 °F - 69.1 °F 85% 30.01 in 10.0 mi SSE 4.6 mph - N/A   Clear
2:53 AM 71.1 °F - 66.9 °F 87% 29.99 in 10.0 mi South 3.5 mph - N/A   Clear
3:53 AM 71.1 °F - 68.0 °F 90% 29.98 in 10.0 mi South 5.8 mph - N/A   Scattered Clouds
4:03 AM 71.6 °F - 68.0 °F 88% 29.97 in 10.0 mi South 4.6 mph - N/A   Mostly Cloudy
4:19 AM 71.6 °F - 68.0 °F 88% 29.98 in 10.0 mi Calm Calm - N/A   Mostly Cloudy
4:53 AM 71.1 °F - 68.0 °F 90% 29.98 in 10.0 mi South 4.6 mph - N/A   Overcast
5:53 AM 71.1 °F - 69.1 °F 93% 29.98 in 10.0 mi South 4.6 mph - N/A   Scattered Clouds
6:04 AM 71.6 °F - 69.8 °F 94% 29.98 in 10.0 mi SSE 3.5 mph - N/A   Partly Cloudy
6:29 AM 71.6 °F - 69.8 °F 94% 29.97 in 10.0 mi SSE 4.6 mph - N/A   Mostly Cloudy
6:46 AM 71.6 °F - 69.8 °F 94% 29.97 in 10.0 mi Calm Calm - N/A   Scattered Clouds
6:53 AM 71.1 °F - 69.1 °F 93% 29.98 in 10.0 mi South 3.5 mph - N/A   Scattered Clouds
7:17 AM 71.6 °F - 69.8 °F 94% 29.98 in 10.0 mi South 3.5 mph - N/A   Mostly Cloudy
7:36 AM 71.6 °F - 69.8 °F 94% 29.98 in 8.0 mi South 4.6 mph - N/A   Overcast
7:53 AM 73.0 °F - 69.1 °F 87% 30.00 in 10.0 mi South 5.8 mph - N/A   Overcast
8:53 AM 73.9 °F - 70.0 °F 87% 30.01 in 10.0 mi SSW 5.8 mph - N/A   Overcast
9:53 AM 75.9 °F - 70.0 °F 82% 30.03 in 10.0 mi South 5.8 mph - N/A   Overcast
10:20 AM 77.0 °F - 69.8 °F 78% 30.01 in 10.0 mi South 8.1 mph - N/A   Overcast
10:53 AM 79.0 °F - 70.0 °F 74% 30.00 in 10.0 mi South 9.2 mph - N/A   Overcast
11:53 AM 81.0 °F 84.9 °F 71.1 °F 72% 29.99 in 10.0 mi SSW 10.4 mph - N/A   Overcast
12:53 PM 84.0 °F 89.0 °F 71.1 °F 65% 29.99 in 10.0 mi South 10.4 mph 17.3 mph N/A   Overcast
1:01 PM 82.4 °F 86.3 °F 69.8 °F 66% 29.98 in 10.0 mi South 11.5 mph - N/A   Overcast
1:53 PM 84.9 °F 88.8 °F 69.1 °F 59% 29.96 in 10.0 mi South 13.8 mph - N/A   Overcast
2:53 PM 87.1 °F 92.8 °F 71.1 °F 59% 29.92 in 10.0 mi SSW 9.2 mph 18.4 mph N/A   Scattered Clouds
3:53 PM 87.1 °F 91.3 °F 69.1 °F 55% 29.91 in 10.0 mi South 10.4 mph - N/A   Scattered Clouds
4:53 PM 86.0 °F 90.1 °F 69.1 °F 57% 29.89 in 10.0 mi South 12.7 mph - N/A   Scattered Clouds
5:53 PM 87.1 °F 91.3 °F 69.1 °F 55% 29.87 in 10.0 mi South 12.7 mph - N/A   Clear
6:53 PM 86.0 °F 90.7 °F 70.0 °F 59% 29.86 in 10.0 mi South 13.8 mph 17.3 mph N/A   Partly Cloudy
7:53 PM 84.9 °F 88.8 °F 69.1 °F 59% 29.85 in 10.0 mi South 10.4 mph - N/A   Clear
8:53 PM 82.0 °F 86.3 °F 71.1 °F 69% 29.86 in 10.0 mi South 6.9 mph - N/A   Clear
9:53 PM 81.0 °F 84.9 °F 71.1 °F 72% 29.86 in 10.0 mi SSE 6.9 mph - N/A   Clear
10:53 PM 80.1 °F 83.8 °F 72.0 °F 76% 29.88 in 10.0 mi SSE 8.1 mph - N/A   Clear
11:53 PM 79.0 °F - 72.0 °F 79% 29.89 in 10.0 mi SSE 10.4 mph 18.4 mph N/A   Clear